Hourly Weather Roundup
Issued by NWS Central Illinois

Home | Current Version | Previous Version | Graphics & Text | Print | Product List | Glossary On
Versions: 1 2 3 4 5 6 7 8 9 10 11 12 13 14 15 16 17 18 19 20 21 22 23 24 25 26 27 28 29 30 31 32 33 34 35 36 37 38 39 40 41 42 43 44 45 46 47 48 49 50
000
NZUS43 KILX 170910
HWRILX

AREA WEATHER ROUNDUP
NATIONAL WEATHER SERVICE, LINCOLN IL
300 AM CST TUE JAN 17 2017


CITY           SKY/WX    TMP DP  RH WIND       PRES   REMARKS
BLOOMINGTON    FOG       46  45  93 W18G25    29.82R VSB 1/4
CHAMPAIGN      CLOUDY    52  49  89 W20G28    29.81R
DANVILLE       HVY RAIN  56  55  99 SW22G28   29.76S
DECATUR        CLOUDY    50  49  96 W17G24    29.85R
EFFINGHAM      CLOUDY    53  52  99 W12       29.88S
FLORA          CLOUDY    60  57  91 SW10      29.87R
GALESBURG      FOG       37  37 100 SW3       29.85R VSB 1/4
JACKSONVILLE   CLOUDY    45  41  88 W12G17    29.88S
LACON          CLOUDY    40  40 100 SW6       29.81R
LAWRENCEVILLE  CLOUDY    58  57  97 S14       29.87S
LITCHFIELD     CLOUDY    47  43  86 W18G24    29.90R
$$


CITY           SKY/WX    TMP DP  RH WIND       PRES   REMARKS
LINCOLN        CLOUDY    48  47  96 W8        29.85R
MACOMB         CLOUDY    41  41 100 W16       29.87R FOG     WCI  33
MATTOON        LGT RAIN  52  49  89 W15G26    29.84R
MT CARMEL AP   MOCLDY    58  55  91 S12       29.86F
OLNEY-NOBLE AP MOCLDY    55  55 100 S7        29.87S
PARIS          RAIN      57  56  97 SW18G24   29.81F
PEORIA         FOG       45  45 100 W8        29.84R VSB 3/4
PONTIAC        FOG       45  45 100 SW9       29.79R VSB 1/2
RANTOUL        CLOUDY    53  51  95 W15G24    29.79R
SPRINGFIELD    CLOUDY    48  43  82 W13       29.87R
TAYLORVILLE    CLOUDY    47  45  92 W14G22    29.88R
$$

...REGIONAL REPORTS...


CITY           SKY/WX    TMP DP  RH WIND       PRES   REMARKS
CHICAGO O`HARE CLOUDY    38  38 100 NW6       29.73F FOG     WCI  33
KANKAKEE       LGT RAIN  50  49  97 SW10      29.76S
MOLINE         FOG       36  34  92 W6        29.83R VSB 1/2 WCI  31
MOUNT STERLING CLOUDY    41  40  97 W12G17    29.87S WCI  35
MOUNT VERNON   MOCLDY    57  55  94 W17G24    29.90R
PITTSFIELD     CLOUDY    44  41  89 W14G20    29.90S
QUINCY         CLOUDY    42  41  96 W14       29.88R WCI  35
ROCKFORD       RAIN      37  35  92 NW3       29.80R FOG
$$


CITY           SKY/WX    TMP DP  RH WIND       PRES   REMARKS
BURLINGTON     FOG       37  37 100 W10       29.86R VSB 1   WCI  30
CEDAR RAPIDS   FOG       33  33 100 NW6       29.84R VSB 1/2 WCI  28
DES MOINES     DRIZZLE   34  33  96 NW10      29.92R FOG     WCI  26
KIRKSVILLE     CLOUDY    39  39 100 W7        29.91R FOG     WCI  34
OTTUMWA        CLOUDY    34  34 100 W8        29.87R WCI  27
ST LOUIS       CLOUDY    47  40  76 W18       29.92R
$$


CITY           SKY/WX    TMP DP  RH WIND       PRES   REMARKS
TERRE HAUTE    CLOUDY    57  55  93 SW16      29.82F
EVANSVILLE     CLOUDY    61  57  87 S14       29.90F
INDIANAPOLIS   MOCLDY    55  54  96 S12       29.83F
LAFAYETTE      CLOUDY    56  55  97 S14G21    29.78F
MADISON        MIX PCPN  34  33  96 N6        29.81S FOG     WCI  29
MILWAUKEE      LGT RAIN  38  36  92 E7        29.79F VSB 1   WCI  33
$$






USA.gov is the U.S. government's official web portal to all federal, state and local government web resources and services.